DateTimeUTC,F1_A11,F1_S11,BsB_S11,BsG_S11,BsR_S11,BbsB_S11,BbsG_S11,BbsR_S11,BaB_A11,BaG_A11,BaR_A11,Tu_S11,T_S11,Uu_S11,U_S11,P_S11,T1_A11
2021-09-01T04:00:00Z,00040200,20000000,,,,,,,-000.01,0000.19,0000.22,18.3,25.2,03.3,02.2,0673.0,31.0
2021-09-01T04:01:00Z,00040200,20000000,,,,,,,-000.21,0000.10,-000.14,18.4,25.2,03.3,02.2,0673.0,31.0
2021-09-01T04:02:00Z,00040200,20000000,,,,,,,0000.09,-000.06,-000.11,18.4,25.2,03.4,02.2,0673.0,31.0
2021-09-01T04:03:00Z,00040200,60000000,,,,,,,0001.06,0000.74,0000.68,18.4,25.3,03.4,02.2,0673.0,31.0
2021-09-01T04:04:00Z,00040200,40000000,0007.14,0005.37,0003.84,0000.74,0000.69,0000.46,0000.94,0001.31,0000.96,18.7,25.2,03.4,02.3,0674.0,31.0
2021-09-01T04:05:00Z,00040200,00000000,0006.20,0005.74,0003.75,0001.48,0000.57,0000.37,0001.52,0001.13,0000.99,18.8,25.1,03.4,02.3,0674.0,31.0
2021-09-01T04:06:00Z,00040200,00000000,0007.02,0005.68,0003.86,0001.34,0000.67,0000.45,0001.17,0001.09,0000.74,18.7,25.1,03.4,02.3,0674.1,31.0
2021-09-01T04:07:00Z,00040200,00000000,0006.26,0005.68,0003.72,0001.43,0000.72,0000.23,0001.46,0001.19,0000.85,18.7,25.1,03.4,02.3,0674.0,31.0
2021-09-01T04:08:00Z,00040200,00000000,0005.87,0005.75,0003.72,0000.65,0000.54,0000.42,0001.16,0000.72,0000.96,18.7,25.1,03.4,02.3,0674.0,31.0
2021-09-01T04:09:00Z,00040200,00000000,0007.05,0005.27,0003.98,0001.04,0000.81,0000.49,0001.14,0001.33,0001.09,18.7,25.0,03.4,02.3,0674.0,31.0
2021-09-01T04:10:00Z,00040200,00000000,0006.49,0005.75,0003.62,0001.02,0000.48,0000.34,0001.12,0001.23,0000.84,18.6,25.0,03.4,02.3,0674.0,31.0
2021-09-01T04:11:00Z,00040200,00000000,0006.19,0005.78,0004.10,0001.02,0000.33,0000.67,0001.27,0000.67,0000.73,18.6,25.0,03.5,02.3,0674.0,31.0
2021-09-01T04:12:00Z,00040200,00000000,0006.88,0005.66,0003.77,0001.04,0000.85,0000.65,0000.77,0001.33,0000.75,18.6,25.0,03.5,02.4,0674.0,30.9
2021-09-01T04:13:00Z,00040200,00000000,0007.15,0005.39,0003.66,0001.04,0000.65,0000.39,0001.46,0001.13,0001.01,18.6,24.9,03.4,02.3,0674.0,30.9
2021-09-01T04:14:00Z,00040200,00000000,0006.14,0005.64,0003.84,0000.91,0000.63,0000.48,0001.29,0001.41,0001.07,18.6,24.9,03.5,02.3,0674.0,30.9
2021-09-01T04:15:00Z,00040200,00000000,0006.21,0005.47,0003.66,0001.03,0000.78,0000.73,0001.32,0000.93,0001.03,18.6,25.0,03.4,02.3,0674.0,31.0
2021-09-01T04:16:00Z,00040200,00000000,0006.18,0005.00,0003.54,0000.92,0000.38,0000.43,0001.17,0001.01,0000.66,18.7,25.0,03.4,02.3,0674.1,31.0
2021-09-01T04:17:00Z,00040200,00000000,0006.02,0005.20,0003.57,0000.68,0000.73,-000.05,0000.98,0001.11,0001.07,18.8,25.1,03.4,02.3,0674.0,31.0
2021-09-01T04:18:00Z,00040200,00000000,0006.35,0005.39,0003.47,0001.22,0000.76,0000.47,0000.91,0001.01,0000.88,18.9,25.1,03.3,02.3,0674.1,31.0
2021-09-01T04:19:00Z,00040200,00000000,0006.68,0005.46,0003.73,0001.01,0000.45,0000.70,0001.46,0001.18,0000.76,18.9,25.1,03.4,02.3,0674.1,31.0
2021-09-01T04:20:00Z,00040200,00000000,0005.98,0004.98,0003.60,0000.38,0000.81,0000.20,0001.01,0000.87,0000.70,18.8,25.1,03.3,02.3,0674.1,31.0
2021-09-01T04:21:00Z,00040200,00000000,0006.47,0004.93,0003.60,0001.35,0000.52,0000.32,0001.29,0001.20,0000.96,18.8,25.1,03.3,02.3,0674.1,31.0
2021-09-01T04:22:00Z,00040200,00000000,0006.92,0005.20,0003.93,0000.61,0000.76,0000.46,0000.87,0000.92,0000.83,18.8,25.1,03.3,02.2,0674.0,31.0
2021-09-01T04:23:00Z,00040200,00000000,0006.29,0005.27,0003.81,0000.62,0000.69,0000.44,0001.56,0001.36,0000.69,18.7,25.0,03.2,02.2,0674.0,31.0
2021-09-01T04:24:00Z,00040200,00000000,0007.57,0005.41,0003.11,0000.72,0000.64,0000.35,0000.97,0001.31,0001.31,18.7,25.0,03.3,02.2,0674.0,30.9
2021-09-01T04:25:00Z,00040200,00000000,0006.72,0004.92,0003.44,0000.95,0000.33,0000.11,0000.95,0000.54,0000.79,18.7,25.0,03.2,02.2,0674.0,31.0
2021-09-01T04:26:00Z,00040200,00000000,0006.60,0005.53,0003.63,0001.86,0000.81,0000.41,0001.33,0001.28,0000.46,18.7,25.0,03.3,02.2,0674.0,30.9
2021-09-01T04:27:00Z,00040200,00000000,0006.68,0005.73,0003.70,0000.92,0000.83,0000.40,0001.59,0001.82,0001.21,18.6,24.9,03.3,02.3,0674.0,30.9
2021-09-01T04:28:00Z,00040200,00000000,0007.14,0005.56,0003.69,0001.14,0000.62,0000.51,0001.35,0000.52,0000.92,18.6,24.9,03.4,02.3,0674.0,30.9
2021-09-01T04:29:00Z,00040200,00000000,0007.08,0005.50,0003.39,0000.51,0000.55,0000.31,0001.15,0000.94,0000.89,18.6,24.9,03.3,02.3,0674.1,30.9
2021-09-01T04:30:00Z,00040200,00000000,0006.97,0005.52,0003.54,0001.36,0000.28,0000.36,0001.18,0001.38,0001.14,18.7,25.0,03.3,02.3,0674.1,31.0
2021-09-01T04:31:00Z,00040200,00000000,0007.12,0005.71,0003.70,0001.06,0000.95,0000.45,0000.85,0000.87,0000.43,18.8,25.0,03.3,02.2,0674.1,31.0
2021-09-01T04:32:00Z,00040200,00000000,0006.51,0005.21,0003.58,0001.13,0000.77,0000.57,0000.67,0000.51,0000.51,18.9,25.1,03.2,02.2,0674.1,31.0
2021-09-01T04:33:00Z,00040200,00000000,0007.28,0005.16,0003.58,0000.80,0000.69,0000.42,0001.24,0001.47,0001.03,18.9,25.1,03.1,02.1,0674.1,31.0
2021-09-01T04:34:00Z,00040200,00000000,0006.20,0005.19,0003.71,0001.83,0000.38,0000.59,0001.22,0000.68,0001.03,18.9,25.1,03.2,02.2,0674.1,31.0
2021-09-01T04:35:00Z,00040200,00000000,0006.88,0005.95,0003.68,0000.79,0000.80,0000.45,0001.60,0001.86,0001.08,18.9,25.0,03.3,02.2,0674.1,31.0
2021-09-01T04:36:00Z,00040200,00000000,0006.89,0005.55,0003.80,0001.86,0000.62,0000.09,0001.13,0000.91,0001.03,18.8,25.0,03.3,02.3,0674.1,31.0
2021-09-01T04:37:00Z,00040200,00000000,0006.87,0005.32,0003.59,0001.03,0000.33,0000.35,0001.39,0001.69,0001.08,18.8,25.0,03.2,02.2,0674.1,31.0
2021-09-01T04:38:00Z,00040200,00000000,0006.36,0005.21,0003.77,0001.19,0000.70,0000.43,0001.08,0000.84,0001.08,18.8,25.0,03.3,02.3,0674.0,31.0
2021-09-01T04:39:00Z,00040200,00000000,0006.21,0005.34,0003.78,0000.54,0000.91,0000.48,0001.55,0001.10,0000.64,18.7,25.0,03.3,02.3,0674.0,31.0
2021-09-01T04:40:00Z,00040200,00000000,0005.95,0005.56,0003.58,0001.32,0000.51,0000.48,0001.04,0001.18,0000.91,18.7,25.0,03.3,02.2,0674.0,31.0
2021-09-01T04:41:00Z,00040200,00000000,0005.93,0005.60,0003.55,0001.04,0000.46,0000.15,0001.05,0000.95,0000.53,18.6,24.9,03.3,02.2,0674.0,30.9
2021-09-01T04:42:00Z,00040200,00000000,0006.80,0005.14,0003.44,0001.07,0000.57,0000.17,0000.80,0000.72,0000.65,18.6,24.9,03.3,02.3,0674.0,30.9
2021-09-01T04:43:00Z,00040200,00000000,0007.23,0005.21,0003.45,0000.63,0000.26,0000.56,0001.15,0000.91,0000.95,18.6,24.9,03.3,02.2,0674.0,30.9
2021-09-01T04:44:00Z,00040200,00000000,0006.27,0004.87,0003.29,0000.33,0000.51,-000.04,0001.04,0001.29,0001.07,18.6,24.9,03.2,02.2,0674.0,30.9
2021-09-01T04:45:00Z,00040200,00000000,0006.49,0005.10,0003.21,0001.75,0000.64,0000.13,0000.98,0000.54,0000.48,18.7,24.9,03.2,02.2,0674.0,31.0
2021-09-01T04:46:00Z,00040200,00000000,0006.12,0004.54,0002.98,0000.76,0000.46,0000.16,0000.49,0000.38,0000.59,18.7,25.0,03.0,02.1,0674.1,31.0
2021-09-01T04:47:00Z,00040200,00000000,0006.18,0004.33,0002.67,0000.49,0000.41,0000.33,0000.74,0000.94,0000.71,18.8,25.0,02.9,02.0,0674.1,31.0
2021-09-01T04:48:00Z,00040200,00000000,0004.71,0003.88,0002.74,0000.75,0000.23,0000.49,-000.08,0000.03,-000.38,18.8,25.0,02.7,01.8,0674.1,31.0
2021-09-01T04:49:00Z,00040200,00000000,0005.44,0004.47,0002.38,0001.80,0000.47,-000.01,0000.58,0000.75,0000.42,18.8,25.0,02.6,01.8,0674.1,31.0
2021-09-01T04:50:00Z,00040200,00000000,0005.07,0003.96,0003.28,0000.78,0000.61,0000.41,0000.42,0000.21,0000.38,18.7,25.0,02.4,01.6,0674.1,31.0
2021-09-01T04:51:00Z,00040200,00000000,0004.28,0003.59,0002.56,0000.68,0000.45,0000.21,0000.48,0000.25,0000.09,18.7,25.0,02.4,01.6,0674.1,30.9
2021-09-01T04:52:00Z,00040200,00000000,0004.39,0003.36,0001.91,0000.77,0000.41,0000.26,0000.71,0000.55,0000.55,18.6,24.9,02.3,01.5,0674.1,30.9
2021-09-01T04:53:00Z,00040200,00000000,0004.56,0003.27,0001.38,0000.73,0000.39,0000.16,0000.29,0000.22,0000.49,18.6,24.9,02.1,01.4,0674.1,30.9
2021-09-01T04:54:00Z,00040200,00000000,0004.48,0003.01,0001.82,0000.70,0000.37,0000.02,0000.50,0000.33,0000.03,18.6,24.9,02.1,01.4,0674.0,30.9
2021-09-01T04:55:00Z,00040200,01000000,0003.48,0003.35,0001.95,0001.11,0000.34,0000.28,0000.55,0000.74,0000.47,18.5,24.8,02.0,01.4,0674.1,30.9
2021-09-01T04:56:00Z,00040200,00000000,0004.31,0002.80,0001.91,0000.53,0000.42,0000.14,0000.29,0000.19,0000.17,18.5,24.8,01.9,01.3,0674.1,30.9
2021-09-01T04:57:00Z,00040200,40000000,,,,,,,0001.80,0001.62,0001.42,18.5,24.9,01.5,01.0,0674.1,30.9
2021-09-01T04:58:00Z,00040200,60000000,,,,,,,-001.10,-000.81,-000.83,18.1,25.0,02.3,01.5,0673.2,30.9
2021-09-01T04:59:00Z,00040200,20000000,,,,,,,-000.13,-000.74,0000.21,18.1,25.0,02.2,01.4,0673.2,30.9
